Con. actuales
Mostly Clear
Conditions



PressiĆ³n:
1010.92 (hPa) - 29.85 (inHG)
Visibilidad:

10.0 (km) - 6.2 (miles)
Base de Nubes

Despejado (Mts) - Despejado (Feets)
   Temperatura
19  °C
Temperatura
17  °C
88  %
 Humedad
   Velocidad del Viento
13  km/h
7  kts
8  mph
3.6  m/s
   Wind Direction
N
45°
E
90°
135°
S
180°
225°
O
270°
315°
 90°

Del   Easte
   Airport Data
SAEZ
Ministro Pistarini International Airport
Metar :SAEZ 270400Z 09007KT CAVOK 19/17 Q1011 NOSIG RMK PP000
Sat 27th November 01:00 am
   Raw Metar Info
Raw METAR is the most common format in the world for the transmission of observational weather data. It is highly standardized through the International Civil Aviation Organization (ICAO), which allows it to be understood throughout most of the world.
   API Info
Data Provided by
https://www.checkwx.com/weather/SAEZ

Aviation Weather providing METAR, TAF, AIRMET, SIGMET and OUTLOOK Weather Reports
   © Info
CSS/SVG/PHP scripts were developed by weather34.com for use in the weather34 template © 2015-2021

Guide Info provided by Metar-Wikipedia